Location: Clifton Park
(41.4873°N, 81.8024°W)
Time: 06:43:30
(UTC+00:00)

Cosmos 2263 Rocket - Pass Details

Date: 21 January 2020
Orbit: 823 x 849 km, 71.0° (Epoch: 23 February)

Event Time Altitude Azimuth Distance (km) Brightness Sun altitude
Exits shadow 10:37:29 - 351° (N) 2,590 4.6 -24.3°
Reaches altitude 10° 10:37:52 10° 353° (N) 2,460 4.5 -24.2°
Maximum altitude 10:42:56 33° 57° (ENE) 1,383 3.7 -23.3°
Drops below altitude 10° 10:48:00 10° 121° (ESE) 2,462 5.5 -22.3°
Sets 10:50:41 0° 130° (SE) 3,396 6.3 -21.8°
